Simultaneous Nadir Overpasses (SNOs) Predictions

Prediction of SNOs between LANDSAT-8 and NOAA-19 Satellite Orbit:

Table of predicted SNOs for the next 14.0 days since TLE Epoch: 4/18/2020
Index Date (LANDSAT-8) Time (LANDSAT-8) Lat,Lon (LANDSAT-8) SZA (LANDSAT-8 ) Date (NOAA-19) Time (NOAA-19) Lat,Lon (NOAA-19) SZA (NOAA-19 ) Distance(km) Time Diff (sec)
1 04/18/2020 12:53:10 79.66, 11.32 69.50 04/18/2020 12:52:14 79.66, 11.18 69.47 2.75 56
2 04/18/2020 13:42:38 -79.63, 178.73 110.56 04/18/2020 13:43:11 -79.63, 178.73 110.54 0.58 33
3 04/20/2020 19:16:20 79.64, -84.59 68.71 04/20/2020 19:16:33 79.64, -84.61 68.72 0.34 13
4 04/23/2020 00:50:03 -79.67, 12.16 111.99 04/23/2020 00:49:49 -79.64, 12.17 112.02 3.25 14
5 04/25/2020 06:23:45 79.68, 108.79 67.30 04/25/2020 06:23:12 79.65, 108.77 67.27 2.65 33
6 04/25/2020 07:13:13 -79.65, -83.76 112.75 04/25/2020 07:14:08 -79.64, -83.79 112.75 1.75 55
7 04/27/2020 11:57:29 -79.67,-154.72 113.42 04/27/2020 11:56:28 -79.68,-154.74 113.43 1.40 61
8 04/27/2020 12:46:55 79.66, 12.84 66.56 04/27/2020 12:47:31 79.64, 12.92 66.56 2.30 36
9 04/29/2020 17:31:04 79.92, -56.21 66.28 04/29/2020 17:30:02 79.96, -61.26 65.91 98.26 62
10 04/29/2020 18:20:38 -79.69, 109.60 114.09 04/29/2020 18:20:46 -79.65, 109.57 114.12 3.56 8
11 05/01/2020 23:54:20 79.68,-153.85 65.24 05/01/2020 23:54:10 79.67,-153.84 65.23 1.51 10




NCC Satellite Simultaneous Nadir Overpasses (SNOs) Prediction Service
